Barcelona, Spain

5:30 PM CEST on August 17, 2018 (GMT +0200)
El Prat

Weather History for LEBL - February, 2018

Change the Weather History Date:

Friday, February 9, 2018

  Actual Average Record
Temperature  
Mean Temperature 41 °F -  
Max Temperature 50 °F 56 °F 68 °F (2016)
Min Temperature 32 °F 42 °F 32 °F (2018)
Degree Days  
Heating Degree Days 24    
Moisture  
Dew Point 30 °F    
Average Humidity 61    
Maximum Humidity 87    
Minimum Humidity 35    
Precipitation  
Precipitation 0.00 in 0.05 in - ()
Sea Level Pressure  
Sea Level Pressure 30.06 in    
Wind  
Wind Speed 9 mph ()    
Max Wind Speed 15 mph    
Max Gust Speed -    
Visibility 12.7 miles    
Events      
Averages and records for this station are not official NWS values.
T = Trace of Precipitation, MM = Missing Value Source: Averaged Metar Reports

Daily Weather History Graph

Daily Weather History Graph

Search for Another Location

Airport or City:

Astronomy

Feb. 09, 2018 Rise Set
Actual Time 7:54 AM CET 6:18 PM CET
Civil Twilight 7:25 AM CET 6:46 PM CET
Nautical Twilight 6:53 AM CET 7:19 PM CET
Astronomical Twilight 6:20 AM CET 7:51 PM CET
Moon 2:56 AM CET (2/9) 1:10 PM CET (2/9)
Length of Visible Light 11h 21m
Length of Day
10h 23m
Waning Crescent, 33% of the Moon is Illuminated
Feb 9
Waning Crescent
Feb 15
New
Feb 23
First Quarter
Mar 2
Full
Mar 9
Last Quarter

Hourly Weather History & Observations

Time (CET) Temp. Windchill Dew Point Humidity Pressure Visibility Wind Dir Wind Speed Gust Speed Precip Events Conditions
12:00 AM 37 °F - 32 °F 74% 30.12 in 10 mi North 6.9 mph - -  
12:00 AM 37.4 °F 31.4 °F 32.0 °F 81% 30.09 in 6.2 mi NW 8.1 mph - N/A   Partly Cloudy
12:30 AM 37.4 °F 31.4 °F 32.0 °F 81% 30.09 in 6.2 mi NNW 8.1 mph - N/A   Partly Cloudy
1:00 AM 37 °F - 31 °F 73% 30.12 in 12 mi North 9.2 mph - -   Scattered Clouds
1:00 AM 35.6 °F 28.0 °F 32.0 °F 87% 30.09 in 6.2 mi NW 10.4 mph - N/A   Partly Cloudy
1:30 AM 35.6 °F 28.6 °F 30.2 °F 81% 30.09 in 6.2 mi NNW 9.2 mph - N/A   Partly Cloudy
2:00 AM 36 °F - 31 °F 73% 30.11 in 9 mi North 11.5 mph - -  
2:00 AM 35.6 °F 27.5 °F 30.2 °F 81% 30.09 in 6.2 mi NNW 11.5 mph - N/A   Partly Cloudy
2:30 AM 35.6 °F 27.1 °F 30.2 °F 81% 30.09 in 6.2 mi NW 12.7 mph - N/A   Partly Cloudy
3:00 AM 35 °F - 30 °F 75% 30.10 in 9 mi North 11.5 mph - -  
3:00 AM 33.8 °F 25.3 °F 30.2 °F 87% 30.09 in - NW 11.5 mph - N/A   Clear
3:30 AM 33.8 °F 25.8 °F 30.2 °F 87% 30.09 in - NW 10.4 mph - N/A   Clear
4:00 AM 34 °F - 29 °F 76% 30.09 in 9 mi North 11.5 mph - -   Clear
4:00 AM 33.8 °F 24.3 °F 28.4 °F 81% 30.06 in - NNW 13.8 mph - N/A   Clear
4:30 AM 33.8 °F 26.4 °F 28.4 °F 81% 30.06 in - NW 9.2 mph - N/A   Clear
5:00 AM 33.8 °F 25.3 °F 28.4 °F 81% 30.06 in - NW 11.5 mph - N/A   Clear
5:30 AM 33.8 °F 25.3 °F 28.4 °F 81% 30.06 in - NNW 11.5 mph - N/A   Clear
6:00 AM 34 °F - 28 °F 72% 30.08 in 8 mi North 12.7 mph - -  
6:00 AM 33.8 °F 24.8 °F 28.4 °F 81% 30.06 in - NNW 12.7 mph - N/A   Clear
6:30 AM 33.8 °F 26.4 °F 28.4 °F 81% 30.06 in - NNW 9.2 mph - N/A   Clear
7:00 AM 33 °F - 28 °F 74% 30.09 in 9 mi North 12.7 mph - -   Clear
7:00 AM 32.0 °F 23.0 °F 28.4 °F 87% 30.06 in - NNW 11.5 mph - N/A   Clear
7:30 AM 32.0 °F 24.8 °F 26.6 °F 80% 30.06 in - NNW 8.1 mph - N/A   Clear
8:00 AM 32.0 °F 25.6 °F 26.6 °F 80% 30.06 in - NW 6.9 mph - N/A   Clear
8:30 AM 33.8 °F 26.4 °F 26.6 °F 75% 30.09 in - NW 9.2 mph - N/A   Clear
9:00 AM 33.8 °F 25.3 °F 26.6 °F 75% 30.09 in - NW 11.5 mph - N/A   Clear
9:30 AM 35.6 °F 28.0 °F 26.6 °F 70% 30.09 in - NW 10.4 mph - N/A   Clear
10:00 AM 39 °F - 27 °F 51% 30.11 in 15 mi North 11.5 mph - -   Scattered Clouds
10:00 AM 37.4 °F 30.8 °F 26.6 °F 65% 30.09 in - NW 9.2 mph - N/A   Clear
10:30 AM 39.2 °F 33.0 °F 26.6 °F 61% 30.09 in - NW 9.2 mph - N/A   Clear
11:00 AM 43 °F - 27 °F 40% 30.10 in 17 mi North 13.8 mph - -  
11:00 AM 41.0 °F 34.3 °F 26.6 °F 57% 30.09 in - NNW 11.5 mph - N/A   Clear
11:30 AM 42.8 °F 37.0 °F 26.6 °F 53% 30.09 in - NNW 10.4 mph - N/A   Clear
12:00 PM 46 °F - 29 °F 38% 30.09 in 16 mi North 9.2 mph - -  
12:00 PM 44.6 °F 39.2 °F 28.4 °F 53% 30.06 in - NNW 10.4 mph - N/A   Clear
12:30 PM 46.4 °F 41.9 °F 28.4 °F 50% 30.06 in - NW 9.2 mph - N/A   Clear
1:00 PM 50 °F - 31 °F 35% 30.07 in 17 mi WNW 2.3 mph - -   Clear
1:00 PM 48.2 °F - 30.2 °F 50% 30.06 in - West 5.8 mph - N/A   Clear
1:30 PM 48.2 °F - 26.6 °F 43% 30.04 in - SW 6.9 mph - N/A   Clear
2:00 PM 49 °F - 30 °F 36% 30.05 in 19 mi SSW 8.1 mph - -  
2:00 PM 46.4 °F 41.9 °F 30.2 °F 53% 30.04 in - SW 9.2 mph - N/A   Clear
2:30 PM 48.2 °F - 32.0 °F 54% 30.04 in - SW 9.2 mph - N/A   Clear
3:00 PM 50 °F - 33 °F 40% 30.03 in 19 mi SW 11.5 mph - -  
3:00 PM 48.2 °F - 32.0 °F 54% 30.01 in - SW 10.4 mph - N/A   Clear
3:30 PM 48.2 °F - 30.2 °F 50% 30.01 in - SW 12.7 mph - N/A   Clear
4:00 PM 49 °F - 34 °F 43% 30.01 in 17 mi WSW 15.0 mph - -   Scattered Clouds
4:00 PM 48.2 °F - 33.8 °F 58% 30.01 in - SW 13.8 mph - N/A   Clear
4:30 PM 48.2 °F - 32.0 °F 54% 30.01 in - WSW 13.8 mph - N/A   Clear
5:00 PM 49 °F - 32 °F 40% 30.01 in 19 mi West 9.2 mph - -  
5:00 PM 48.2 °F - 32.0 °F 54% 30.01 in - WSW 11.5 mph - N/A   Clear
5:30 PM 48.2 °F - 32.0 °F 54% 30.01 in - WSW 6.9 mph - N/A   Clear
6:00 PM 49 °F - 31 °F 37% 30.02 in 19 mi WNW 2.3 mph - -  
6:00 PM 48.2 °F - 30.2 °F 50% 30.01 in - NW 4.6 mph - N/A   Clear
6:30 PM 46.4 °F 42.4 °F 30.2 °F 53% 30.01 in - NW 8.1 mph - N/A   Clear
7:00 PM 47 °F - 30 °F 38% 30.03 in 19 mi NNW 4.6 mph - -   Mostly Cloudy
7:00 PM 46.4 °F 42.9 °F 30.2 °F 53% 30.01 in 6.2 mi NW 6.9 mph - N/A   Partly Cloudy
7:30 PM 46.4 °F 45.2 °F 28.4 °F 50% 30.01 in 6.2 mi WNW 3.5 mph - N/A   Partly Cloudy
8:00 PM 47 °F - 30 °F 39% 30.03 in 19 mi West 5.8 mph - -  
8:00 PM 46.4 °F 45.2 °F 28.4 °F 50% 30.01 in - NW 3.5 mph - N/A   Clear
8:30 PM 46.4 °F 45.2 °F 28.4 °F 50% 30.04 in - North 3.5 mph - N/A   Clear
9:00 PM 46 °F - 30 °F 40% 30.04 in 19 mi NNE 4.6 mph - -  
9:00 PM 44.6 °F 43.1 °F 30.2 °F 57% 30.04 in - North 3.5 mph - N/A   Clear
9:30 PM 44.6 °F 41.4 °F 30.2 °F 57% 30.04 in - NNW 5.8 mph - N/A   Clear
10:00 PM 44 °F - 31 °F 48% 30.04 in 19 mi NNE 3.5 mph - -   Clear
10:00 PM 44.6 °F 41.4 °F 30.2 °F 57% 30.04 in - NNW 5.8 mph - N/A   Clear
10:30 PM 42.8 °F 39.3 °F 30.2 °F 61% 30.04 in - NNW 5.8 mph - N/A   Clear
11:00 PM 43 °F - 31 °F 52% 30.04 in 19 mi North 8.1 mph - -  
11:00 PM 42.8 °F 38.0 °F 30.2 °F 61% 30.04 in - NW 8.1 mph - N/A   Clear
11:30 PM 42.8 °F 40.1 °F 30.2 °F 61% 30.01 in - NW 4.6 mph - N/A   Clear